This demonstration page uses our WeatherBlox Daily Observations layout. Learn more.

Left ArrowRight Arrow

Hourly Observations for September 5, 2020

Temp ( °F °C ) Dew Point ( °F °C ) Humidity (%) Winds ( mph kmh ) Pressure ( in mb ) Visibility ( mi km ) Precip ( " mm )
12:53 am 00:53 Clear 81 27.2 58 14.4 45 45 ESE 13 20 30.06 1018 10 16 0.00 0.00
1:53 am 01:53 Clear 79 26.1 64 17.8 60 60 SSE 13 20 30.07 1018 10 16 0.00 0.00
2:53 am 02:53 Clear 75 23.9 62 16.7 64 64 SSE 8 13 30.08 1019 10 16 0.00 0.00
3:53 am 03:53 Clear 73 22.8 61 16.1 66 66 SE 6 9 30.08 1019 10 16 0.00 0.00
4:53 am 04:53 Clear 70 21.1 60 15.6 71 71 E 5 7 30.09 1019 10 16 0.00 0.00
5:53 am 05:53 Clear 70 21.1 61 16.1 73 73 E 6 9 30.09 1019 10 16 0.00 0.00
6:53 am 06:53 Clear 68 20 61 16.1 78 78 E 5 7 30.11 1020 10 16 0.00 0.00
7:53 am 07:53 Mostly Cloudy 68 20 61 16.1 78 78 E 5 7 30.14 1021 10 16 0.00 0.00
8:53 am 08:53 Sunny 73 22.8 63 17.2 71 71 ESE 9 15 30.16 1021 10 16 0.00 0.00
9:53 am 09:53 Sunny 76 24.4 64 17.8 67 67 ESE 9 15 30.18 1022 10 16 0.00 0.00
10:53 am 10:53 Mostly Cloudy 80 26.7 63 17.2 56 56 ESE 10 17 30.19 1022 10 16 0.00 0.00
11:14 am 11:14 Mostly Cloudy 79 26.1 63 17.2 58 58 E 7 11 30.16 1021 10 16 0.00 0.00
11:53 am 11:53 Mostly Cloudy 81 27.2 62 16.7 53 53 E 10 17 30.20 1023 10 16 0.00 0.00
12:53 pm 12:53 Mostly Cloudy 84 28.9 60 15.6 44 44 SE 7 11 30.18 1022 10 16 0.00 0.00
1:53 pm 13:53 Partly Cloudy 85 29.4 60 15.6 43 43 SSE 9 15 30.16 1021 10 16 0.00 0.00
2:53 pm 14:53 Mostly Cloudy 89 31.7 59 15 36 36 VRB 7 11 30.14 1021 10 16 0.00 0.00
3:53 pm 15:53 Mostly Sunny 90 32.2 59 15 35 35 VRB 7 11 30.11 1020 10 16 0.00 0.00
4:53 pm 16:53 Mostly Cloudy 90 32.2 61 16.1 38 38 undefined N/A 30.09 1019 10 16 0.00 0.00
5:53 pm 17:53 Sunny 89 31.7 59 15 36 36 S 9 15 30.07 1018 10 16 0.00 0.00
6:53 pm 18:53 Mostly Sunny 89 31.7 59 15 36 36 SSE 6 9 30.07 1018 10 16 0.00 0.00
7:53 pm 19:53 Sunny 87 30.6 59 15 39 39 SE 9 15 30.07 1018 10 16 0.00 0.00
8:53 pm 20:53 Clear 84 28.9 59 15 43 43 SSE 7 11 30.08 1019 10 16 0.00 0.00
9:53 pm 21:53 Clear 82 27.8 59 15 46 46 SE 7 11 30.10 1019 10 16 0.00 0.00
10:53 pm 22:53 Clear 80 26.7 58 14.4 47 47 ESE 6 9 30.10 1019 10 16 0.00 0.00
11:53 pm 23:53 Clear 79 26.1 60 15.6 52 52 SSE 10 17 30.11 1020 10 16 0.00 0.00

Powered by AerisWeather